Back to catalog

STARLINK-3800

AliveCommunicationsVLEO
NORAD 52379·PAYLOAD·🇺🇸 United States

Launched Apr 29, 2022 from Cape Canaveral Space Force Station

Loading…

Next Passes (next 24 hours)

TLE

FreshSource: CelesTrak SupGP

Epoch: Sep 15, 2026, 01:09 UTC

1 52379C 22045BA  26258.04840278  .00009204  00000+0  28017-3 0  2588
2 52379  53.1584  48.4821 0001985 312.3428  83.1448 15.33444211    14

Track STARLINK-3800 in real time with AllMySat

Download on the App Store